#Datum;Uhrzeit;WR;Pac;DaySum;Status;WR;Pac;DaySum;Status;Pdc1;Udc;Temp;WR;Pac;DaySum;Status;Pdc1;Udc;Temp;WR;Pac;DaySum;Status;Pdc1;Udc;Temp;WR;Pac;DaySum;Status;Pdc1;Pdc2;Udc1;Udc2;Temp;WR;Pac;DaySum;Status;Pdc1;Pdc2;Udc1;Udc2;Temp;WR;Pac;DaySum;Status;Pdc1;Udc;Temp;WR;Pac;DaySum;Status;Pdc1;Udc;Temp;WR;Pac;DaySum;Status;Pdc1;Udc;Temp
04.01.20;23:55:00;1;471;14175;0;2;0;2908;0;0;0;0;3;0;1792;0;0;0;0;4;0;2502;0;0;0;0;5;0;6347;0;0;0;0;0;0;6;0;4406;0;0;0;0;0;0;7;0;3255;0;0;0;0;8;0;3268;0;0;0;0;9;0;1721;0;0;0;0
04.01.20;23:50:00;1;470;14136;0;2;0;2908;0;0;0;0;3;0;1792;0;0;0;0;4;0;2502;0;0;0;0;5;0;6347;0;0;0;0;0;0;6;0;4406;0;0;0;0;0;0;7;0;3255;0;0;0;0;8;0;3268;0;0;0;0;9;0;1721;0;0;0;0
04.01.20;23:45:00;1;462;14097;0;2;0;2908;0;0;0;0;3;0;1792;0;0;0;0;4;0;2502;0;0;0;0;5;0;6347;0;0;0;0;0;0;6;0;4406;0;0;0;0;0;0;7;0;3255;0;0;0;0;8;0;3268;0;0;0;0;9;0;1721;0;0;0;0
04.01.20;23:40:00;1;475;14058;0;2;0;2908;0;0;0;0;3;0;1792;0;0;0;0;4;0;2502;0;0;0;0;5;0;6347;0;0;0;0;0;0;6;0;4406;0;0;0;0;0;0;7;0;3255;0;0;0;0;8;0;3268;0;0;0;0;9;0;1721;0;0;0;0
04.01.20;23:35:00;1;481;14018;0;2;0;2908;0;0;0;0;3;0;1792;0;0;0;0;4;0;2502;0;0;0;0;5;0;6347;0;0;0;0;0;0;6;0;4406;0;0;0;0;0;0;7;0;3255;0;0;0;0;8;0;3268;0;0;0;0;9;0;1721;0;0;0;0
04.01.20;23:30:00;1;582;13976;0;2;0;2908;0;0;0;0;3;0;1792;0;0;0;0;4;0;2502;0;0;0;0;5;0;6347;0;0;0;0;0;0;6;0;4406;0;0;0;0;0;0;7;0;3255;0;0;0;0;8;0;3268;0;0;0;0;9;0;1721;0;0;0;0
04.01.20;23:25:00;1;600;13928;0;2;0;2908;0;0;0;0;3;0;1792;0;0;0;0;4;0;2502;0;0;0;0;5;0;6347;0;0;0;0;0;0;6;0;4406;0;0;0;0;0;0;7;0;3255;0;0;0;0;8;0;3268;0;0;0;0;9;0;1721;0;0;0;0
04.01.20;23:20:00;1;659;13878;0;2;0;2908;0;0;0;0;3;0;1792;0;0;0;0;4;0;2502;0;0;0;0;5;0;6347;0;0;0;0;0;0;6;0;4406;0;0;0;0;0;0;7;0;3255;0;0;0;0;8;0;3268;0;0;0;0;9;0;1721;0;0;0;0
04.01.20;23:15:00;1;565;13826;0;2;0;2908;0;0;0;0;3;0;1792;0;0;0;0;4;0;2502;0;0;0;0;5;0;6347;0;0;0;0;0;0;6;0;4406;0;0;0;0;0;0;7;0;3255;0;0;0;0;8;0;3268;0;0;0;0;9;0;1721;0;0;0;0
04.01.20;23:10:00;1;573;13779;0;2;0;2908;0;0;0;0;3;0;1792;0;0;0;0;4;0;2502;0;0;0;0;5;0;6347;0;0;0;0;0;0;6;0;4406;0;0;0;0;0;0;7;0;3255;0;0;0;0;8;0;3268;0;0;0;0;9;0;1721;0;0;0;0
04.01.20;23:05:00;1;561;13732;0;2;0;2908;0;0;0;0;3;0;1792;0;0;0;0;4;0;2502;0;0;0;0;5;0;6347;0;0;0;0;0;0;6;0;4406;0;0;0;0;0;0;7;0;3255;0;0;0;0;8;0;3268;0;0;0;0;9;0;1721;0;0;0;0
04.01.20;23:00:00;1;562;13685;0;2;0;2908;0;0;0;0;3;0;1792;0;0;0;0;4;0;2502;0;0;0;0;5;0;6347;0;0;0;0;0;0;6;0;4406;0;0;0;0;0;0;7;0;3255;0;0;0;0;8;0;3268;0;0;0;0;9;0;1721;0;0;0;0
04.01.20;22:55:00;1;510;13637;0;2;0;2908;0;0;0;0;3;0;1792;0;0;0;0;4;0;2502;0;0;0;0;5;0;6347;2;0;0;0;0;0;6;0;4406;2;0;0;0;0;0;7;0;3255;0;0;0;0;8;0;3268;0;0;0;0;9;0;1721;0;0;0;0
04.01.20;22:50:00;1;497;13595;0;2;0;2908;0;0;0;0;3;0;1792;0;0;0;0;4;0;2502;0;0;0;0;5;0;6347;2;0;0;0;0;0;6;0;4406;2;0;0;0;0;0;7;0;3255;0;0;0;0;8;0;3268;0;0;0;0;9;0;1721;0;0;0;0
04.01.20;22:45:00;1;538;13553;0;2;0;2908;0;0;0;0;3;0;1792;0;0;0;0;4;0;2502;0;0;0;0;5;0;6347;2;0;0;0;0;0;6;0;4406;2;0;0;0;0;0;7;0;3255;0;0;0;0;8;0;3268;0;0;0;0;9;0;1721;0;0;0;0
04.01.20;22:40:00;1;544;13509;0;2;0;2908;0;0;0;0;3;0;1792;0;0;0;0;4;0;2502;0;0;0;0;5;0;6347;2;0;0;0;0;0;6;0;4406;2;0;0;0;0;0;7;0;3255;0;0;0;0;8;0;3268;0;0;0;0;9;0;1721;0;0;0;0
04.01.20;22:35:00;1;544;13464;0;2;0;2908;0;0;0;0;3;0;1792;0;0;0;0;4;0;2502;0;0;0;0;5;0;6347;2;0;0;0;0;0;6;0;4406;2;0;0;0;0;0;7;0;3255;0;0;0;0;8;0;3268;0;0;0;0;9;0;1721;0;0;0;0
04.01.20;22:30:00;1;521;13418;0;2;0;2908;0;0;0;0;3;0;1792;0;0;0;0;4;0;2502;0;0;0;0;5;0;6347;2;0;0;0;0;0;6;0;4406;2;0;0;0;0;0;7;0;3255;0;0;0;0;8;0;3268;0;0;0;0;9;0;1721;0;0;0;0
04.01.20;22:25:00;1;501;13375;0;2;0;2908;0;0;0;0;3;0;1792;0;0;0;0;4;0;2502;0;0;0;0;5;0;6347;2;0;0;0;0;0;6;0;4406;2;0;0;0;0;0;7;0;3255;0;0;0;0;8;0;3268;0;0;0;0;9;0;1721;0;0;0;0
04.01.20;22:20:00;1;492;13333;0;2;0;2908;0;0;0;0;3;0;1792;0;0;0;0;4;0;2502;0;0;0;0;5;0;6347;2;0;0;0;0;0;6;0;4406;2;0;0;0;0;0;7;0;3255;0;0;0;0;8;0;3268;0;0;0;0;9;0;1721;0;0;0;0
04.01.20;22:15:00;1;500;13292;0;2;0;2908;0;0;0;0;3;0;1792;0;0;0;0;4;0;2502;0;0;0;0;5;0;6347;2;0;0;0;0;0;6;0;4406;2;0;0;0;0;0;7;0;3255;0;0;0;0;8;0;3268;0;0;0;0;9;0;1721;0;0;0;0
04.01.20;22:10:00;1;502;13251;0;2;0;2908;0;0;0;0;3;0;1792;0;0;0;0;4;0;2502;0;0;0;0;5;0;6347;2;0;0;0;0;0;6;0;4406;2;0;0;0;0;0;7;0;3255;0;0;0;0;8;0;3268;0;0;0;0;9;0;1721;0;0;0;0
04.01.20;22:05:00;1;505;13209;0;2;0;2908;0;0;0;0;3;0;1792;0;0;0;0;4;0;2502;0;0;0;0;5;0;6347;2;0;0;0;0;0;6;0;4406;2;0;0;0;0;0;7;0;3255;0;0;0;0;8;0;3268;0;0;0;0;9;0;1721;0;0;0;0
04.01.20;22:00:00;1;517;13167;0;2;0;2908;0;0;0;0;3;0;1792;0;0;0;0;4;0;2502;0;0;0;0;5;0;6347;2;0;0;0;0;0;6;0;4406;2;0;0;0;0;0;7;0;3255;0;0;0;0;8;0;3268;0;0;0;0;9;0;1721;0;0;0;0
04.01.20;21:55:00;1;539;13123;0;2;0;2908;0;0;0;0;3;0;1792;0;0;0;0;4;0;2502;0;0;0;0;5;0;6347;2;0;0;0;0;0;6;0;4406;2;0;0;0;0;0;7;0;3255;0;0;0;0;8;0;3268;0;0;0;0;9;0;1721;0;0;0;0
04.01.20;21:50:00;1;566;13078;0;2;0;2908;0;0;0;0;3;0;1792;0;0;0;0;4;0;2502;0;0;0;0;5;0;6347;2;0;0;0;0;0;6;0;4406;2;0;0;0;0;0;7;0;3255;0;0;0;0;8;0;3268;0;0;0;0;9;0;1721;0;0;0;0
04.01.20;21:45:00;1;665;13030;0;2;0;2908;0;0;0;0;3;0;1792;0;0;0;0;4;0;2502;0;0;0;0;5;0;6347;2;0;0;0;0;0;6;0;4406;2;0;0;0;0;0;7;0;3255;0;0;0;0;8;0;3268;0;0;0;0;9;0;1721;0;0;0;0
04.01.20;21:40:00;1;565;12976;0;2;0;2908;0;0;0;0;3;0;1792;0;0;0;0;4;0;2502;0;0;0;0;5;0;6347;2;0;0;0;0;0;6;0;4406;2;0;0;0;0;0;7;0;3255;0;0;0;0;8;0;3268;0;0;0;0;9;0;1721;0;0;0;0
04.01.20;21:35:00;1;561;12929;0;2;0;2908;0;0;0;0;3;0;1792;0;0;0;0;4;0;2502;0;0;0;0;5;0;6347;2;0;0;0;0;0;6;0;4406;2;0;0;0;0;0;7;0;3255;0;0;0;0;8;0;3268;0;0;0;0;9;0;1721;0;0;0;0
04.01.20;21:30:00;1;560;12882;0;2;0;2908;0;0;0;0;3;0;1792;0;0;0;0;4;0;2502;0;0;0;0;5;0;6347;2;0;0;0;0;0;6;0;4406;2;0;0;0;0;0;7;0;3255;0;0;0;0;8;0;3268;0;0;0;0;9;0;1721;0;0;0;0
04.01.20;21:25:00;1;560;12835;0;2;0;2908;0;0;0;0;3;0;1792;0;0;0;0;4;0;2502;0;0;0;0;5;0;6347;2;0;0;0;0;0;6;0;4406;2;0;0;0;0;0;7;0;3255;0;0;0;0;8;0;3268;0;0;0;0;9;0;1721;0;0;0;0
04.01.20;21:20:00;1;571;12789;0;2;0;2908;0;0;0;0;3;0;1792;0;0;0;0;4;0;2502;0;0;0;0;5;0;6347;2;0;0;0;0;0;6;0;4406;2;0;0;0;0;0;7;0;3255;0;0;0;0;8;0;3268;0;0;0;0;9;0;1721;0;0;0;0
04.01.20;21:15:00;1;488;12742;0;2;0;2908;0;0;0;0;3;0;1792;0;0;0;0;4;0;2502;0;0;0;0;5;0;6347;2;0;0;0;0;0;6;0;4406;2;0;0;0;0;0;7;0;3255;0;0;0;0;8;0;3268;0;0;0;0;9;0;1721;0;0;0;0
04.01.20;21:10:00;1;484;12701;0;2;0;2908;0;0;0;0;3;0;1792;0;0;0;0;4;0;2502;0;0;0;0;5;0;6347;2;0;0;0;0;0;6;0;4406;2;0;0;0;0;0;7;0;3255;0;0;0;0;8;0;3268;0;0;0;0;9;0;1721;0;0;0;0
04.01.20;21:05:00;1;462;12661;0;2;0;2908;0;0;0;0;3;0;1792;0;0;0;0;4;0;2502;0;0;0;0;5;0;6347;2;0;0;0;0;0;6;0;4406;2;0;0;0;0;0;7;0;3255;0;0;0;0;8;0;3268;0;0;0;0;9;0;1721;0;0;0;0
04.01.20;21:00:00;1;420;12622;0;2;0;2908;0;0;0;0;3;0;1792;0;0;0;0;4;0;2502;0;0;0;0;5;0;6347;2;0;0;0;0;0;6;0;4406;2;0;0;0;0;0;7;0;3255;0;0;0;0;8;0;3268;0;0;0;0;9;0;1721;0;0;0;0
04.01.20;20:55:00;1;374;12587;0;2;0;2908;0;0;0;0;3;0;1792;0;0;0;0;4;0;2502;0;0;0;0;5;0;6347;2;0;0;0;0;0;6;0;4406;2;0;0;0;0;0;7;0;3255;0;0;0;0;8;0;3268;0;0;0;0;9;0;1721;0;0;0;0
04.01.20;20:50:00;1;374;12556;0;2;0;2908;0;0;0;0;3;0;1792;0;0;0;0;4;0;2502;0;0;0;0;5;0;6347;2;0;0;0;0;0;6;0;4406;2;0;0;0;0;0;7;0;3255;0;0;0;0;8;0;3268;0;0;0;0;9;0;1721;0;0;0;0
04.01.20;20:45:00;1;372;12525;0;2;0;2908;0;0;0;0;3;0;1792;0;0;0;0;4;0;2502;0;0;0;0;5;0;6347;2;0;0;0;0;0;6;0;4406;2;0;0;0;0;0;7;0;3255;0;0;0;0;8;0;3268;0;0;0;0;9;0;1721;0;0;0;0
04.01.20;20:40:00;1;375;12493;0;2;0;2908;0;0;0;0;3;0;1792;0;0;0;0;4;0;2502;0;0;0;0;5;0;6347;2;0;0;0;0;0;6;0;4406;2;0;0;0;0;0;7;0;3255;0;0;0;0;8;0;3268;0;0;0;0;9;0;1721;0;0;0;0
04.01.20;20:35:00;1;430;12462;0;2;0;2908;0;0;0;0;3;0;1792;0;0;0;0;4;0;2502;0;0;0;0;5;0;6347;2;0;0;0;0;0;6;0;4406;2;0;0;0;0;0;7;0;3255;0;0;0;0;8;0;3268;0;0;0;0;9;0;1721;0;0;0;0
04.01.20;20:30:00;1;461;12427;0;2;0;2908;0;0;0;0;3;0;1792;0;0;0;0;4;0;2502;0;0;0;0;5;0;6347;2;0;0;0;0;0;6;0;4406;2;0;0;0;0;0;7;0;3255;0;0;0;0;8;0;3268;0;0;0;0;9;0;1721;0;0;0;0
04.01.20;20:25:00;1;561;12388;0;2;0;2908;0;0;0;0;3;0;1792;0;0;0;0;4;0;2502;0;0;0;0;5;0;6347;2;0;0;0;0;0;6;0;4406;2;0;0;0;0;0;7;0;3255;0;0;0;0;8;0;3268;0;0;0;0;9;0;1721;0;0;0;0
04.01.20;20:20:00;1;632;12342;0;2;0;2908;0;0;0;0;3;0;1792;0;0;0;0;4;0;2502;0;0;0;0;5;0;6347;2;0;0;0;0;0;6;0;4406;2;0;0;0;0;0;7;0;3255;0;0;0;0;8;0;3268;0;0;0;0;9;0;1721;0;0;0;0
04.01.20;20:15:00;1;633;12289;0;2;0;2908;0;0;0;0;3;0;1792;0;0;0;0;4;0;2502;0;0;0;0;5;0;6347;2;0;0;0;0;0;6;0;4406;2;0;0;0;0;0;7;0;3255;0;0;0;0;8;0;3268;0;0;0;0;9;0;1721;0;0;0;0
04.01.20;20:10:00;1;635;12237;0;2;0;2908;0;0;0;0;3;0;1792;0;0;0;0;4;0;2502;0;0;0;0;5;0;6347;2;0;0;0;0;0;6;0;4406;2;0;0;0;0;0;7;0;3255;0;0;0;0;8;0;3268;0;0;0;0;9;0;1721;0;0;0;0
04.01.20;20:05:00;1;594;12183;0;2;0;2908;0;0;0;0;3;0;1792;0;0;0;0;4;0;2502;0;0;0;0;5;0;6347;2;0;0;0;0;0;6;0;4406;2;0;0;0;0;0;7;0;3255;0;0;0;0;8;0;3268;0;0;0;0;9;0;1721;0;0;0;0
04.01.20;20:00:00;1;590;12134;0;2;0;2908;0;0;0;0;3;0;1792;0;0;0;0;4;0;2502;0;0;0;0;5;0;6347;2;0;0;0;0;0;6;0;4406;2;0;0;0;0;0;7;0;3255;0;0;0;0;8;0;3268;0;0;0;0;9;0;1721;0;0;0;0
04.01.20;19:55:00;1;627;12085;0;2;0;2908;0;0;0;0;3;0;1792;0;0;0;0;4;0;2502;0;0;0;0;5;0;6347;2;0;0;0;0;0;6;0;4406;2;0;0;0;0;0;7;0;3255;0;0;0;0;8;0;3268;0;0;0;0;9;0;1721;0;0;0;0
04.01.20;19:50:00;1;661;12032;0;2;0;2908;0;0;0;0;3;0;1792;0;0;0;0;4;0;2502;0;0;0;0;5;0;6347;2;0;0;0;0;0;6;0;4406;2;0;0;0;0;0;7;0;3255;0;0;0;0;8;0;3268;0;0;0;0;9;0;1721;0;0;0;0
04.01.20;19:45:00;1;666;11976;0;2;0;2908;0;0;0;0;3;0;1792;0;0;0;0;4;0;2502;0;0;0;0;5;0;6347;2;0;0;0;0;0;6;0;4406;2;0;0;0;0;0;7;0;3255;0;0;0;0;8;0;3268;0;0;0;0;9;0;1721;0;0;0;0
04.01.20;19:40:00;1;675;11921;0;2;0;2908;0;0;0;0;3;0;1792;0;0;0;0;4;0;2502;0;0;0;0;5;0;6347;2;0;0;0;0;0;6;0;4406;2;0;0;0;0;0;7;0;3255;0;0;0;0;8;0;3268;0;0;0;0;9;0;1721;0;0;0;0
04.01.20;19:35:00;1;1013;11864;0;2;0;2908;0;0;0;0;3;0;1792;0;0;0;0;4;0;2502;0;0;0;0;5;0;6347;2;0;0;0;0;0;6;0;4406;2;0;0;0;0;0;7;0;3255;0;0;0;0;8;0;3268;0;0;0;0;9;0;1721;0;0;0;0
04.01.20;19:30:00;1;1350;11767;0;2;0;2908;0;0;0;0;3;0;1792;0;0;0;0;4;0;2502;0;0;0;0;5;0;6347;2;0;0;0;0;0;6;0;4406;2;0;0;0;0;0;7;0;3255;0;0;0;0;8;0;3268;0;0;0;0;9;0;1721;0;0;0;0
04.01.20;19:25:00;1;2172;11653;0;2;0;2908;0;0;0;0;3;0;1792;0;0;0;0;4;0;2502;0;0;0;0;5;0;6347;2;0;0;0;0;0;6;0;4406;2;0;0;0;0;0;7;0;3255;0;0;0;0;8;0;3268;0;0;0;0;9;0;1721;0;0;0;0
04.01.20;19:20:00;1;3938;11461;0;2;0;2908;0;0;0;0;3;0;1792;0;0;0;0;4;0;2502;0;0;0;0;5;0;6347;2;0;0;0;0;0;6;0;4406;2;0;0;0;0;0;7;0;3255;0;0;0;0;8;0;3268;0;0;0;0;9;0;1721;0;0;0;0
04.01.20;19:15:00;1;2896;11169;0;2;0;2908;0;0;0;0;3;0;1792;0;0;0;0;4;0;2502;0;0;0;0;5;0;6347;2;0;0;0;0;0;6;0;4406;2;0;0;0;0;0;7;0;3255;0;0;0;0;8;0;3268;0;0;0;0;9;0;1721;0;0;0;0
04.01.20;19:10:00;1;2334;10927;0;2;0;2908;0;0;0;0;3;0;1792;0;0;0;0;4;0;2502;0;0;0;0;5;0;6347;2;0;0;0;0;0;6;0;4406;2;0;0;0;0;0;7;0;3255;0;0;0;0;8;0;3268;0;0;0;0;9;0;1721;0;0;0;0
04.01.20;19:05:00;1;920;10772;0;2;0;2908;0;0;0;0;3;0;1792;0;0;0;0;4;0;2502;0;0;0;0;5;0;6347;2;0;0;0;0;0;6;0;4406;2;0;0;0;0;0;7;0;3255;0;0;0;0;8;0;3268;0;0;0;0;9;0;1721;0;0;0;0
04.01.20;19:00:00;1;818;10695;0;2;0;2908;0;0;0;0;3;0;1792;0;0;0;0;4;0;2502;0;0;0;0;5;0;6347;2;0;0;0;0;0;6;0;4406;2;0;0;0;0;0;7;0;3255;0;0;0;0;8;0;3268;0;0;0;0;9;0;1721;0;0;0;0
04.01.20;18:55:00;1;841;10629;0;2;0;2908;0;0;0;0;3;0;1792;0;0;0;0;4;0;2502;0;0;0;0;5;0;6347;2;0;0;0;0;0;6;0;4406;2;0;0;0;0;0;7;0;3255;0;0;0;0;8;0;3268;0;0;0;0;9;0;1721;0;0;0;0
04.01.20;18:50:00;1;881;10556;0;2;0;2908;0;0;0;0;3;0;1792;0;0;0;0;4;0;2502;0;0;0;0;5;0;6347;2;0;0;0;0;0;6;0;4406;2;0;0;0;0;0;7;0;3255;0;0;0;0;8;0;3268;0;0;0;0;9;0;1721;0;0;0;0
04.01.20;18:45:00;1;940;10482;0;2;0;2908;0;0;0;0;3;0;1792;0;0;0;0;4;0;2502;0;0;0;0;5;0;6347;2;0;0;0;0;0;6;0;4406;2;0;0;0;0;0;7;0;3255;0;0;0;0;8;0;3268;0;0;0;0;9;0;1721;0;0;0;0
04.01.20;18:40:00;1;951;10403;0;2;0;2908;0;0;0;0;3;0;1792;0;0;0;0;4;0;2502;0;0;0;0;5;0;6347;2;0;0;0;0;0;6;0;4406;2;0;0;0;0;0;7;0;3255;0;0;0;0;8;0;3268;0;0;0;0;9;0;1721;0;0;0;0
04.01.20;18:35:00;1;950;10324;0;2;0;2908;0;0;0;0;3;0;1792;0;0;0;0;4;0;2502;0;0;0;0;5;0;6347;2;0;0;0;0;0;6;0;4406;2;0;0;0;0;0;7;0;3255;0;0;0;0;8;0;3268;0;0;0;0;9;0;1721;0;0;0;0
04.01.20;18:30:00;1;889;10232;0;2;0;2908;0;0;0;0;3;0;1792;0;0;0;0;4;0;2502;0;0;0;0;5;0;6347;2;0;0;0;0;0;6;0;4406;2;0;0;0;0;0;7;0;3255;0;0;0;0;8;0;3268;0;0;0;0;9;0;1721;0;0;0;0
04.01.20;18:25:00;1;884;10158;0;2;0;2908;0;0;0;0;3;0;1792;0;0;0;0;4;0;2502;0;0;0;0;5;0;6347;2;0;0;0;0;0;6;0;4406;2;0;0;0;0;0;7;0;3255;0;0;0;0;8;0;3268;0;0;0;0;9;0;1721;0;0;0;0
04.01.20;18:20:00;1;886;10085;0;2;0;2908;0;0;0;0;3;0;1792;0;0;0;0;4;0;2502;0;0;0;0;5;0;6347;2;0;0;0;0;0;6;0;4406;2;0;0;0;0;0;7;0;3255;0;0;0;0;8;0;3268;0;0;0;0;9;0;1721;0;0;0;0
04.01.20;18:15:00;1;862;10011;0;2;0;2908;0;0;0;0;3;0;1792;0;0;0;0;4;0;2502;0;0;0;0;5;0;6347;2;0;0;0;0;0;6;0;4406;2;0;0;0;0;0;7;0;3255;0;0;0;0;8;0;3268;0;0;0;0;9;0;1721;0;0;0;0
04.01.20;18:10:00;1;1411;9941;0;2;0;2908;0;0;0;0;3;0;1792;0;0;0;0;4;0;2502;0;0;0;0;5;0;6347;2;0;0;0;0;0;6;0;4406;2;0;0;0;0;0;7;0;3255;0;0;0;0;8;0;3268;0;0;0;0;9;0;1721;0;0;0;0
04.01.20;18:05:00;1;834;9871;0;2;0;2908;0;0;0;0;3;0;1792;0;0;0;0;4;0;2502;0;0;0;0;5;0;6347;2;0;0;0;0;0;6;0;4406;2;0;0;0;0;0;7;0;3255;0;0;0;0;8;0;3268;0;0;0;0;9;0;1721;0;0;0;0
04.01.20;18:00:00;1;798;9804;0;2;0;2908;0;0;0;0;3;0;1792;0;0;0;0;4;0;2502;0;0;0;0;5;0;6347;2;0;0;0;0;0;6;0;4406;2;0;0;0;0;0;7;0;3255;0;0;0;0;8;0;3268;0;0;0;0;9;0;1721;0;0;0;0
04.01.20;17:55:00;1;828;9736;0;2;0;2908;0;0;0;0;3;0;1792;0;0;0;0;4;0;2502;0;0;0;0;5;0;6347;2;0;0;0;0;0;6;0;4406;2;0;0;0;0;0;7;0;3255;0;0;0;0;8;0;3268;0;0;0;0;9;0;1721;0;0;0;0
04.01.20;17:50:00;1;835;9667;0;2;0;2908;0;0;0;0;3;0;1792;0;0;0;0;4;0;2502;0;0;0;0;5;0;6347;2;0;0;0;0;0;6;0;4406;2;0;0;0;0;0;7;0;3255;0;0;0;0;8;0;3268;0;0;0;0;9;0;1721;0;0;0;0
04.01.20;17:45:00;1;818;9597;0;2;0;2908;0;0;0;0;3;0;1792;0;0;0;0;4;0;2502;0;0;0;0;5;0;6347;2;0;0;0;0;0;6;0;4406;2;0;0;0;0;0;7;0;3255;0;0;0;0;8;0;3268;0;0;0;0;9;0;1721;0;0;0;0
04.01.20;17:40:00;1;858;9528;0;2;0;2908;0;0;0;0;3;0;1792;0;0;0;0;4;0;2502;0;0;0;0;5;0;6347;2;0;0;0;0;0;6;0;4406;2;0;0;0;0;0;7;0;3255;0;0;0;0;8;0;3268;0;0;0;0;9;0;1721;0;0;0;0
04.01.20;17:35:00;1;2011;9458;0;2;0;2908;0;0;0;0;3;0;1792;0;0;0;0;4;0;2502;0;0;0;0;5;0;6347;2;0;0;0;0;0;6;0;4406;2;0;0;0;0;0;7;0;3255;0;0;0;0;8;0;3268;0;0;0;0;9;0;1721;0;0;0;0
04.01.20;17:30:00;1;909;9314;0;2;0;2908;0;0;0;0;3;0;1792;0;0;0;0;4;0;2502;0;0;0;0;5;0;6347;2;0;0;0;0;0;6;0;4406;2;0;0;0;0;0;7;0;3255;0;0;0;0;8;0;3268;0;0;0;0;9;0;1721;0;0;0;0
04.01.20;17:25:00;1;1041;9238;0;2;0;2908;0;0;0;0;3;0;1792;0;0;0;0;4;0;2502;0;0;0;0;5;0;6347;2;0;0;0;0;0;6;0;4406;2;0;0;0;0;0;7;0;3255;0;0;0;0;8;0;3268;0;0;0;0;9;0;1721;0;0;0;0
04.01.20;17:20:00;1;961;9147;0;2;0;2908;0;0;0;0;3;0;1792;0;0;0;0;4;0;2502;0;0;0;0;5;0;6347;2;0;0;0;0;0;6;0;4406;2;0;0;0;0;0;7;0;3255;0;0;0;0;8;0;3268;0;0;0;0;9;0;1721;0;0;0;0
04.01.20;17:15:00;1;911;9070;0;2;0;2908;0;0;0;0;3;0;1792;0;0;0;0;4;0;2502;0;0;0;0;5;0;6347;2;0;0;0;0;0;6;0;4406;2;0;0;0;0;0;7;0;3255;0;0;0;0;8;0;3268;0;0;0;0;9;0;1721;0;0;0;0
04.01.20;17:10:00;1;2015;8982;0;2;0;2908;0;0;0;0;3;0;1792;0;0;0;0;4;0;2502;0;0;0;0;5;0;6347;2;0;0;0;0;0;6;0;4406;2;0;0;0;0;0;7;0;3255;0;0;0;0;8;0;3268;0;0;0;0;9;0;1721;0;0;0;0
04.01.20;17:05:00;1;1097;8832;0;2;0;2908;0;0;0;0;3;0;1792;0;0;0;0;4;0;2502;0;0;0;0;5;0;6347;2;0;0;0;0;0;6;0;4406;2;0;0;0;0;0;7;0;3255;0;0;0;0;8;0;3268;0;0;0;0;9;0;1721;0;0;0;0
04.01.20;17:00:00;1;953;8741;0;2;0;2908;0;0;0;0;3;0;1792;0;0;0;0;4;0;2502;0;0;0;0;5;0;6347;2;0;0;0;0;0;6;0;4406;2;0;0;0;0;0;7;0;3255;0;0;0;0;8;0;3268;0;0;0;0;9;0;1721;0;0;0;0
04.01.20;16:55:00;1;838;8662;0;2;0;2908;0;0;0;0;3;0;1792;0;0;0;0;4;0;2502;0;0;0;0;5;0;6347;2;0;0;0;0;0;6;0;4406;2;0;0;0;0;0;7;0;3255;0;0;0;0;8;0;3268;0;0;0;0;9;0;1721;0;0;0;0
04.01.20;16:50:00;1;842;8592;0;2;0;2908;0;0;0;0;3;0;1792;0;0;0;0;4;0;2502;0;0;0;0;5;0;6347;2;0;0;0;0;0;6;0;4406;2;0;0;0;0;0;7;0;3255;0;0;0;0;8;0;3268;0;0;0;0;9;0;1721;0;0;0;0
04.01.20;16:45:00;1;798;8522;0;2;0;2908;0;0;0;0;3;0;1792;0;0;0;0;4;0;2502;0;0;0;0;5;0;6347;2;0;0;0;0;0;6;0;4406;2;0;0;0;0;0;7;0;3255;0;0;0;0;8;0;3268;0;0;0;0;9;0;1721;0;0;0;0
04.01.20;16:40:00;1;1718;8455;0;2;0;2908;0;0;84;3;3;0;1792;2;0;272;12;4;0;2502;0;0;0;0;5;0;6347;2;0;0;0;0;0;6;0;4406;2;0;0;0;0;0;7;0;3255;0;0;0;0;8;0;3268;0;0;0;0;9;0;1721;0;0;0;0
04.01.20;16:35:00;1;1993;8334;0;2;0;2908;6;0;287;9;3;0;1792;6;0;316;12;4;0;2502;0;0;59;5;5;0;6347;2;0;0;0;0;0;6;0;4406;2;0;0;0;0;0;7;0;3255;0;0;0;0;8;0;3268;0;0;0;0;9;0;1721;0;0;0;0
04.01.20;16:30:00;1;1227;8194;0;2;0;2908;6;0;316;9;3;0;1792;6;0;377;12;4;0;2502;1;0;95;7;5;0;6347;2;0;1;142;141;9;6;0;4406;1;1;0;12;11;6;7;0;3255;0;0;0;0;8;0;3268;0;0;0;0;9;0;1721;0;0;0;0
04.01.20;16:25:00;1;1334;8093;0;2;0;2908;6;0;344;9;3;0;1792;6;1;410;13;4;0;2502;1;0;126;7;5;0;6347;2;0;1;327;342;20;6;0;4406;23;6;4;180;453;18;7;0;3255;0;0;128;5;8;0;3268;0;0;177;7;9;0;1721;0;0;235;6
04.01.20;16:20:00;1;1237;7986;0;2;0;2908;6;0;356;9;3;0;1792;3;2;424;13;4;0;2502;1;0;142;7;5;0;6347;26;0;1;386;452;20;6;0;4406;23;6;4;181;502;18;7;0;3255;6;0;281;11;8;0;3268;6;0;287;11;9;0;1721;6;0;305;8
04.01.20;16:15:00;1;1345;7884;0;2;0;2908;6;0;382;9;3;0;1792;6;1;461;13;4;0;2502;1;0;185;7;5;6;6347;1;0;3;405;618;20;6;0;4406;23;5;4;181;554;18;7;0;3255;6;0;355;11;8;0;3268;6;0;360;11;9;0;1721;6;0;381;8
04.01.20;16:10:00;1;1495;7781;0;2;0;2908;6;0;397;9;3;1;1792;6;3;476;13;4;0;2502;1;0;215;8;5;10;6347;1;2;3;412;644;20;6;0;4406;23;9;8;220;575;19;7;0;3255;6;0;402;12;8;0;3268;6;0;423;11;9;0;1721;3;0;442;8
04.01.20;16:05:00;1;1200;7663;0;2;0;2908;6;0;400;9;3;1;1792;6;3;479;13;4;0;2502;1;0;218;8;5;11;6346;1;2;4;416;660;20;6;0;4406;23;5;5;182;577;19;7;0;3255;6;0;408;12;8;0;3268;4;0;406;11;9;0;1721;6;0;442;8
04.01.20;16:00:00;1;1257;7565;0;2;0;2908;6;0;403;9;3;1;1792;6;3;487;13;4;0;2502;1;0;215;8;5;20;6345;1;2;6;414;651;21;6;0;4406;23;5;4;224;580;19;7;0;3255;6;1;415;12;8;0;3268;3;1;333;8;9;0;1721;6;0;457;8
04.01.20;15:55:00;1;1037;7461;0;2;0;2908;6;0;397;9;3;0;1792;6;0;495;13;4;0;2502;1;0;213;8;5;17;6344;1;1;8;409;639;21;6;0;4406;23;5;4;182;574;20;7;0;3255;6;0;394;12;8;0;3268;6;0;414;11;9;0;1721;6;0;440;8
04.01.20;15:50:00;1;1111;7374;0;2;0;2908;6;0;401;10;3;2;1792;3;3;465;13;4;0;2502;1;0;220;8;5;10;6343;1;2;5;417;660;21;6;0;4406;23;4;5;264;579;20;7;0;3255;6;0;414;12;8;0;3268;6;0;419;12;9;0;1721;6;0;443;9
04.01.20;15:45:00;1;1403;7275;0;2;0;2908;6;0;409;10;3;1;1792;6;4;499;13;4;0;2502;1;0;218;9;5;50;6342;1;12;18;390;618;22;6;31;4406;1;13;19;496;469;20;7;0;3255;6;0;416;12;8;0;3268;6;0;364;10;9;0;1721;6;0;470;9
04.01.20;15:40:00;1;1245;7156;0;2;2;2908;3;7;398;10;3;1;1791;6;3;497;13;4;0;2502;3;0;201;9;5;40;6338;4;9;18;402;641;21;6;0;4404;8;5;5;396;588;20;7;0;3255;6;2;434;12;8;0;3268;6;2;439;12;9;1;1721;4;2;478;9
04.01.20;15:35:00;1;1677;7037;0;2;0;2908;6;0;411;10;3;3;1791;6;8;477;13;4;0;2502;3;0;215;9;5;61;6335;1;15;22;381;605;22;6;31;4404;1;18;28;500;477;21;7;0;3255;0;1;359;10;8;0;3268;6;1;287;8;9;1;1721;3;1;455;9
04.01.20;15:30:00;1;908;6928;0;2;40;2908;6;60;371;10;3;2;1791;6;9;525;14;4;16;2502;3;17;200;9;5;146;6330;4;59;57;370;587;22;6;92;4400;4;41;46;448;423;21;7;1;3255;4;5;478;12;8;3;3268;4;5;479;12;9;3;1721;6;6;503;9
04.01.20;15:25:00;1;816;6856;0;2;15;2904;4;24;412;10;3;6;1791;6;11;534;14;4;10;2500;3;11;235;9;5;150;6317;4;61;64;370;587;22;6;95;4392;4;46;52;450;424;21;7;0;3255;6;7;485;12;8;14;3268;4;21;463;12;9;2;1720;6;5;539;9
04.01.20;15:20:00;1;942;6785;0;2;0;2903;6;0;415;10;3;1;1790;3;6;503;14;4;0;2499;3;0;214;10;5;79;6305;4;21;28;370;587;22;6;13;4385;4;8;7;458;568;21;7;0;3255;6;0;283;7;8;1;3266;3;4;441;12;9;1;1720;6;2;387;7
04.01.20;15:15:00;1;792;6707;0;2;0;2903;6;0;405;11;3;1;1790;6;3;488;14;4;0;2499;3;0;211;10;5;13;6298;4;3;9;419;671;22;6;0;4384;8;4;4;392;583;21;7;0;3255;6;2;424;13;8;0;3266;6;0;431;12;9;1;1720;6;1;465;9
04.01.20;15:10:00;1;790;6641;0;2;2;2903;6;7;402;11;3;2;1790;6;5;501;14;4;0;2499;3;0;228;10;5;79;6297;4;19;26;369;581;22;6;43;4384;1;20;34;501;480;22;7;0;3255;6;2;432;13;8;0;3266;6;2;436;12;9;0;1720;6;0;495;9
04.01.20;15:05:00;1;610;6579;0;2;4;2903;6;10;413;11;3;2;1790;6;8;517;14;4;3;2499;3;3;200;10;5;112;6290;4;42;44;369;581;22;6;75;4381;4;35;47;475;453;22;7;4;3255;6;7;466;13;8;4;3266;6;9;467;13;9;2;1720;3;6;490;9
04.01.20;15:00:00;1;607;6529;0;2;15;2902;6;25;401;11;3;5;1790;6;16;489;14;4;4;2499;3;4;199;10;5;123;6281;4;46;49;369;581;23;6;80;4374;4;31;41;514;453;21;7;1;3255;4;5;470;13;8;1;3266;6;4;469;13;9;1;1720;6;4;519;9
04.01.20;14:55:00;1;599;6478;0;2;5;2901;6;10;409;11;3;0;1790;6;0;540;14;4;0;2499;3;0;228;10;5;103;6271;4;36;38;369;581;23;6;8;4368;8;5;9;537;528;21;7;3;3254;3;12;442;14;8;0;3266;6;0;493;13;9;0;1720;6;3;509;10
04.01.20;14:50:00;1;538;6428;0;2;5;2901;6;10;412;12;3;1;1790;4;6;516;15;4;4;2499;3;4;199;11;5;115;6262;4;45;45;369;581;23;6;57;4367;4;15;10;444;233;22;7;1;3254;6;8;365;11;8;3;3266;4;5;469;13;9;0;1720;6;4;517;10
04.01.20;14:45:00;1;458;6384;0;2;76;2900;4;103;367;12;3;19;1789;3;32;535;15;4;39;2498;3;40;198;11;5;200;6252;4;91;84;369;581;23;6;98;4362;4;57;34;444;233;22;7;22;3254;6;39;455;14;8;20;3265;6;27;483;14;9;1;1720;6;5;539;10
04.01.20;14:40:00;1;444;6346;0;2;144;2894;4;183;389;12;3;90;1788;4;125;485;15;4;105;2495;3;109;222;11;5;330;6234;4;166;144;369;581;23;6;166;4353;4;118;67;444;233;22;7;140;3252;4;170;437;14;8;139;3264;4;172;449;14;9;60;1719;6;76;472;10
04.01.20;14:35:00;1;447;6309;0;2;142;2882;4;171;375;13;3;70;1780;4;100;480;15;4;98;2486;5;102;213;11;5;314;6206;4;151;141;369;581;23;6;160;4339;4;102;56;444;233;22;7;115;3240;4;143;394;11;8;140;3252;4;175;474;14;9;30;1714;4;38;552;10
04.01.20;14:30:00;1;805;6271;0;2;121;2870;4;150;378;13;3;28;1774;6;43;550;15;4;79;2478;3;82;202;11;5;282;6181;4;139;126;369;581;23;6;141;4326;4;83;48;444;233;22;7;96;3229;4;134;449;14;8;36;3241;4;51;182;5;9;10;1712;4;14;439;8
04.01.20;14:25:00;1;609;6213;0;2;196;2860;4;226;386;13;3;111;1772;4;153;514;16;4;149;2471;5;155;227;11;5;413;6156;4;208;180;388;581;23;6;205;4314;4;150;87;443;233;22;7;129;3221;4;159;302;9;8;188;3233;4;228;465;14;9;102;1711;4;128;516;11
04.01.20;14:20:00;1;601;6163;0;2;177;2843;4;209;386;13;3;103;1762;4;142;502;16;4;135;2459;5;141;227;11;5;383;6121;4;194;166;396;581;23;6;192;4296;4;115;65;444;233;22;7;187;3204;4;206;432;14;8;178;3217;4;212;441;14;9;62;1702;4;77;300;6
04.01.20;14:15:00;1;587;6113;0;2;201;2828;4;234;377;13;3;116;1754;4;159;518;16;4;161;2447;5;167;229;11;5;440;6089;4;215;191;393;618;23;6;213;4280;4;141;83;444;233;22;7;162;3188;4;193;364;11;8;209;3202;4;243;450;14;9;111;1694;4;137;515;11
04.01.20;14:10:00;1;583;6064;0;2;246;2812;4;279;391;13;3;145;1744;4;185;520;16;4;196;2434;5;204;230;11;5;543;6052;4;278;232;410;632;23;6;250;4263;4;148;82;444;233;22;7;230;3172;4;269;452;14;8;199;3180;0;230;365;11;9;127;1685;4;154;522;11
04.01.20;14:05:00;1;749;6015;0;2;260;2791;4;293;393;13;3;157;1732;4;199;510;16;4;213;2417;5;222;233;11;5;554;6005;4;278;235;399;619;23;6;260;4241;4;138;75;444;233;22;7;260;3153;4;298;472;14;8;268;3164;4;303;460;14;9;144;1674;4;171;515;11
04.01.20;14:00:00;1;780;5950;0;2;177;2769;4;208;383;13;3;101;1718;4;139;514;16;4;132;2399;5;138;229;12;5;374;5959;4;189;169;369;581;23;6;197;4219;4;149;84;444;233;22;7;186;3131;4;217;462;14;8;36;3131;0;43;93;2;9;101;1662;4;125;478;11
04.01.20;13:55:00;1;657;5882;0;2;145;2754;4;174;381;13;3;82;1710;4;117;491;16;4;99;2388;5;103;223;12;5;317;5929;4;155;137;369;581;23;6;178;4203;4;109;79;444;306;22;7;153;3115;4;173;444;14;8;143;3125;4;178;449;14;9;16;1654;4;21;453;8
04.01.20;13:50:00;1;617;5826;0;2;182;2742;4;213;387;14;3;102;1703;4;143;504;16;4;137;2380;5;142;226;12;5;393;5902;4;196;172;391;581;23;6;275;4188;4;119;148;455;528;22;7;69;3097;0;83;174;5;8;59;3112;4;70;166;5;9;73;1652;0;94;392;9
04.01.20;13:45:00;1;618;5774;0;2;260;2727;4;293;385;14;3;155;1695;4;196;518;16;4;209;2369;5;218;233;12;5;555;5869;4;284;244;402;625;23;6;418;4164;4;181;200;579;568;22;7;118;3080;0;129;190;5;8;270;3100;4;308;460;14;9;144;1646;4;169;524;12
04.01.20;13:40:00;1;670;5722;0;2;301;2706;4;337;392;14;3;183;1682;4;224;509;16;4;249;2352;5;259;236;12;5;643;5822;4;314;275;413;645;23;6;483;4129;4;239;257;589;562;22;7;253;3062;0;278;380;12;8;248;3079;4;273;381;11;9;104;1629;0;121;311;7
04.01.20;13:35:00;1;761;5665;0;2;444;2681;4;486;406;14;3;276;1667;4;319;520;17;4;374;2331;5;389;239;12;5;953;5767;4;486;415;416;676;23;6;710;4087;4;344;352;591;578;22;7;438;3042;4;482;475;15;8;452;3052;4;485;471;14;9;235;1621;4;267;530;12